Notices

What's New in latest Release from April 7th, 2021:

- Updated Glossary, including Speed of Maximum Gust, and Total Hourly Precipitation

- Updated national and regional climate services offices contacts and prices information

- Addition of station inventory lists for 1981-2010, 1971-2000, and 1961-1990 Normals.

If you haven't already, please take our survey and provide feedback about our website: https://eccc.sondage-survey.ca/f/LanguageSelection.aspx?s=442ca660-fcf1-47c0-95a9-59707d6fd709

Hourly Data Report for March 07, 2003

TORONTO CITY
ONTARIO

43°40'00.000" N
79°24'00.000" W
112.50 m
6158355
71508
XTO

Download Data

Hourly Data (March 2003)
Hourly Data Report for March 7, 2003
TIME
LST
Temp Definition
°C
Dew Point Definition
°C
Rel Hum Definition
%
Precip. Amount Definition
mm

Wind Dir Definition
10's deg

Wind Spd Definition
km/h
Visibility Definition
km
Stn Press Definition
kPa
Hmdx Definition


Wind Chill Definition


Weather Definition


00:00 -6.6 -12.0 65   LegendMM LegendMM LegendMM 100.93     LegendNANA
01:00 -7.2 -12.4 66   LegendMM LegendMM LegendMM 100.92     LegendNANA
02:00 -7.2 -11.5 71   LegendMM LegendMM LegendMM 100.93     LegendNANA
03:00 -8.2 -12.1 73   LegendMM LegendMM LegendMM 100.89     LegendNANA
04:00 -8.7 -12.2 76   LegendMM LegendMM LegendMM 100.85     LegendNANA
05:00 -7.8 -11.2 77   LegendMM LegendMM LegendMM 100.88     LegendNANA
06:00 -6.2 -11.4 67   LegendMM LegendMM LegendMM 100.86     LegendNANA
07:00 -5.7 -12.1 61   LegendMM LegendMM LegendMM 100.83     LegendNANA
08:00 -4.9 -10.9 63   LegendMM LegendMM LegendMM 100.82     LegendNANA
09:00 -3.5 -9.0 66   LegendMM LegendMM LegendMM 100.81     LegendNANA
10:00 -3.6 -8.5 69   LegendMM LegendMM LegendMM 100.74     LegendNANA
11:00 -2.4 -8.2 64   LegendMM LegendMM LegendMM 100.66     LegendNANA
12:00 -1.6 -8.0 62   LegendMM LegendMM LegendMM 100.57     LegendNANA
13:00 -1.0 -7.7 60   LegendMM LegendMM LegendMM 100.42     LegendNANA
14:00 -1.5 -6.9 67   LegendMM LegendMM LegendMM 100.34     LegendNANA
15:00 -0.6 -6.3 65   LegendMM LegendMM LegendMM 100.24     LegendNANA
16:00 -0.5 -5.2 70   LegendMM LegendMM LegendMM 100.22     LegendNANA
17:00 -0.3 -4.8 72   LegendMM LegendMM LegendMM 100.11     LegendNANA
18:00 -0.2 -4.9 71   LegendMM LegendMM LegendMM 100.13     LegendNANA
19:00 0.4 -3.8 73   LegendMM LegendMM LegendMM 100.17     LegendNANA
20:00 -0.2 -3.3 80   LegendMM LegendMM LegendMM 100.17     LegendNANA
21:00 -0.1 -3.4 78   LegendMM LegendMM LegendMM 100.19     LegendNANA
22:00 -0.2 -3.8 77   LegendMM LegendMM LegendMM 100.23     LegendNANA
23:00 -0.3 -3.8 77   LegendMM LegendMM LegendMM 100.30     LegendNANA

Notes on Data Quality.

Legend

  • E = Estimated
  • M = Missing
  • NA = Not Available*
  • [empty] = Indicates an unobserved value
Date modified: